This is the latest recevied weather packets stored in our database for station/object W4GAP. If no packets are shown the sender has not sent any weather packets the latest 10 day(s).
| Time | Temp. | Humidity | Pressure | Rain* | Wind** | Luminosity | Snow |
|---|---|---|---|---|---|---|---|
| 1778109805 | 21.67° C | 93% | 1010.2 hPa | 0 mm | - | 0 W/m² | - |
| 1778109501 | 22.78° C | 90% | 1010 hPa | 0 mm | - | 0 W/m² | - |
| 1778109199 | 23.89° C | 81% | 1009.4 hPa | 0 mm | - | 0 W/m² | - |
| 1778108896 | 24.44° C | 75% | 1008.8 hPa | 0 mm | - | 0 W/m² | - |
| 1778108593 | 24.44° C | 74% | 1008.3 hPa | 0 mm | - | 1 W/m² | - |
| 1778108289 | 24.44° C | 73% | 1008.8 hPa | 0 mm | - | 1 W/m² | - |
| 1778107987 | 25° C | 73% | 1008.8 hPa | 0 mm | - | 6 W/m² | - |
| 1778107683 | 25° C | 73% | 1009 hPa | 0 mm | - | 11 W/m² | - |
| 1778107381 | 25° C | 73% | 1009.1 hPa | 0 mm | - | 14 W/m² | - |
| 1778107076 | 25° C | 72% | 1009.3 hPa | 0 mm | - | 7 W/m² | - |
| 1778106772 | 25° C | 72% | 1009.6 hPa | 0 mm | - | 6 W/m² | - |
| 1778106469 | 25° C | 71% | 1009.3 hPa | 0 mm | - | 7 W/m² | - |
| 1778106164 | 25° C | 71% | 1009.7 hPa | 0 mm | - | 8 W/m² | - |
| 1778105857 | 25° C | 70% | 1009.3 hPa | 0 mm | - | 15 W/m² | - |
| 1778105555 | 25° C | 70% | 1009.3 hPa | 0 mm | - | 15 W/m² | - |
| 1778105252 | 25.56° C | 70% | 1009.3 hPa | 0 mm | - | 17 W/m² | - |
| 1778104946 | 25.56° C | 70% | 1009.4 hPa | 0 mm | - | 19 W/m² | - |
| 1778104643 | 25.56° C | 70% | 1009.7 hPa | 0 mm | - | 21 W/m² | - |
| 1778104339 | 25.56° C | 69% | 1009.3 hPa | 0 mm | - | 39 W/m² | - |
| 1778104036 | 25.56° C | 69% | 1009.3 hPa | 0 mm | - | 46 W/m² | - |
| 1778103733 | 25.56° C | 69% | 1009.5 hPa | 0 mm | - | 47 W/m² | - |
| 1778103431 | 25.56° C | 69% | 1009.2 hPa | 0 mm | - | 48 W/m² | - |
| 1778103128 | 25.56° C | 69% | 1009 hPa | 0 mm | - | 35 W/m² | - |
| 1778102825 | 25.56° C | 69% | 1009.3 hPa | 0 mm | - | 47 W/m² | - |
| 1778102521 | 25.56° C | 68% | 1009.2 hPa | 0 mm | - | 62 W/m² | - |
* Rain latest hour (hover to see other rain measurements)
** Current wind speed in m/s (hover to see current wind gust speed)